Regional Weather Roundup
Issued by NWS

Home | Current Version | Previous Version | Text Only | Print | Product List | Glossary Off
Versions: 1 2 3 4 5 6 7 8 9 10 11 12 13 14 15 16 17 18 19 20 21 22 23 24 25 26 27 28 29 30 31 32 33 34 35 36 37 38 39 40 41 42 43 44 45 46 47 48 49 50

000
ASUS43 KDTX 270710
RWRMI
MICHIGAN HOURLY REGIONAL WEATHER ROUNDUP
NATIONAL WEATHER SERVICE DETROIT/PONTIAC MI
300 AM EDT FRI MAY 27 2016

NOTE: "FAIR" INDICATES FEW OR NO CLOUDS BELOW 12,000 FEET WITH NO
SIGNIFICANT WEATHER AND/OR OBSTRUCTION TO VISIBILITY.

MIZ047>049-052>055-059>063-066>070-074>076-081>083-270800-
SOUTHEAST LOWER MICHIGAN

CITY           SKY/WX    TMP DP  RH WIND       PRES   REMARKS
ADRIAN         CLOUDY    67  61  81 W5        29.96R
ALMA           FOG       61  61  99 SW5       29.91S VSB 1/4
ANN ARBOR      CLEAR     65  63  93 SW3       29.94R
BAD AXE        CLEAR     65  64  98 CALM      29.91S
CARO           FOG       61  60  97 CALM      29.91R VSB 1/2
DETROIT CITY   CLEAR     73  64  73 SW9       29.93S
DETROIT        MOCLDY    69  64  84 SW6       29.94S
FLINT          PTCLDY    66  60  81 S3        29.92S
GROSSE ILE     CLEAR     66  64  94 S6        29.93S
HILLSDALE      CLOUDY    65  60  85 S3        29.96R
HOWELL         CLEAR     65  62  87 CALM      29.94S

CITY           SKY/WX    TMP DP  RH WIND       PRES   REMARKS
JACKSON        PTCLDY    66  60  81 SW5       29.95R
LAMBERTVILLE   CLOUDY    70  63  80 S5        29.95S
LANSING        PTCLDY    65  61  87 CALM      29.92F
LAPEER         FAIR      65  63  93 W3        29.93R
MASON          PTCLDY    65  58  80 SE5       29.94R
MONROE         CLEAR     70  64  81 SW6       29.93S
MT. CLEMENS    CLOUDY    65  65  99 SW6       29.92R
PONTIAC        PTCLDY    66  61  84 CALM      29.93R
PORT HOPE        N/A     67  65  93 SW6       29.88F
PORT HURON     CLOUDY    64  64 100 CALM      29.93R
TRI CITIES     CLEAR     68  64  87 SW7       29.91S FOG
MIDLAND        FOG       62  62 100 CALM      29.90S VSB 3/4
TROY           PTCLDY    74  64  71 S7        29.95R
SAGINAW HB     PTCLDY    64  63  94 SW6       29.90S
$$
MIZ043>046-050>051-056>058-064>065-071>073-077>080-270800-
SOUTHWEST LOWER MICHIGAN

CITY           SKY/WX    TMP DP  RH WIND       PRES   REMARKS
BATTLE CREEK   CLEAR     65  61  87 SW6       29.94R
BENTON HARBOR  PTCLDY    70  64  81 S6        29.92R
BIG RAPIDS     CLEAR     58  58  97 CALM      29.90S FOG
COLDWATER      PTCLDY    67  62  83 SW5       29.95R
FREMONT        FAIR      62  62 100 CALM      29.90S FOG
HOLLAND        CLEAR     66  61  84 S3        29.92R
GRAND RAPIDS   CLEAR     66  62  87 S3        29.92R
IONIA          FAIR      63  61  92 CALM      29.91S
KALAMAZOO      CLEAR     66  61  84 S8        29.94R
LUDINGTON      PTCLDY    58  58 100 CALM      29.89S FOG
MARSHALL       CLEAR     67  60  79 S3        29.94R
MOUNT PLEASANT FOG       60  60  99 CALM      29.90S VSB 1/2
MUSKEGON       CLEAR     63  58  83 S3        29.90R
SOUTH HAVEN    CLEAR     67  65  93 CALM      29.92R
$$
MIZ016>042-270800-
NORTHERN LOWER MICHIGAN

CITY           SKY/WX    TMP DP  RH WIND       PRES   REMARKS
ALPENA         FOG       56  55  97 CALM      29.88F VSB 1/4
BEAVER ISLAND  FOG       52  52 100 CALM      29.90R VSB 1/4
BELLAIRE         N/A     57  56  95 CALM      29.90R FOG
CADILLAC       CLEAR     57  55  93 CALM      29.91S
CHARLEVOIX     MOCLDY    55  55 100 SE3       29.93R FOG
FRANKFORT      CLEAR     57  57  98 CALM      29.88S FOG
GAYLORD        CLOUDY    59  58  96 CALM      29.91S FOG
GRAYLING       FOG       56  55  95 CALM      29.92S VSB 1/4
HARBOR SPRINGS FOG       53  53 100 CALM      29.90R VSB 1/4
HOUGHTON LAKE  CLOUDY    58  57  97 CALM      29.92R FOG
MANISTEE         N/A     57  54  88 E3        29.89S VSB 1/2
OSCODA         PTCLDY    62  60  93 CALM      29.88F
PELLSTON       FOG       58  57  97 CALM      29.90S VSB 1/4
ROGERS CITY    FOG       51  49  94 CALM      29.90F VSB 1/4
TRAVERSE CITY  CLEAR     60  57  89 N3        29.88S
$$
MIZ007>008-015-270800-
EASTERN UPPER MICHIGAN

CITY           SKY/WX    TMP DP  RH WIND       PRES   REMARKS
KINROSS          N/A     57  57 100 CALM      29.89R VSB 1/4
MACKINAC ISLAN FOG       53  53 100 SW5       29.89R VSB 1/4
NEWBERRY       FOG       53  52  97 SW3       29.89R VSB 3/4
S. S. MARIE    FOG       57  55  93 SW3       29.88R VSB 1/4
MUNISING         N/A     58  58 100 S7        29.86R
$$
MIZ004>006-011>014-085-270800-
CENTRAL UPPER MICHIGAN

CITY           SKY/WX    TMP DP  RH WIND       PRES   REMARKS
MANISTIQUE     FOG       51  50  97 CALM      29.88R VSB 1/4
ESCANABA       CLOUDY    52  48  87 CALM      29.88R VSB 3/4
MENOMINEE      CLEAR     55  54  96 CALM      29.88R FOG
SAWYER-GWINN   FOG       57  56  96 S5        29.88R VSB 1
$$
MIZ001>003-009>011-084-270800-
WESTERN UPPER MICHIGAN

CITY           SKY/WX    TMP DP  RH WIND       PRES   REMARKS
IRON MOUNTAIN  FOG       61  60  97 S3        29.87R VSB 1/2
HOUGHTON       FOG       51  49  92 CALM      29.84R VSB 1/4
COPPER HARBOR    N/A     48  48 100 CALM      29.84R
IRONWOOD       CLOUDY    57  55  94 CALM      29.85S
$$

ABBREVIATIONS USED IN REMARKS
   TC - TEMPERATURE IN CELSIUS
  WCI - WIND CHILL INDEX
   HX - HEAT INDEX
  VSB - VISIBILITY





USA.gov is the U.S. government's official web portal to all federal, state and local government web resources and services.